Regional Weather Roundup
Issued by NWS

Home | Current Version | Previous Version | Graphics & Text | Print | Product List | Glossary On
Versions: 1 2 3 4 5 6 7 8 9 10 11 12 13 14 15 16 17 18 19 20 21 22 23 24 25 26 27 28 29 30 31 32 33 34 35 36 37 38 39 40 41 42 43 44 45 46 47 48 49 50
000
ASUS43 KFSD 161110
RWRSD

WEATHER ROUNDUP FOR SOUTH DAKOTA
NATIONAL WEATHER SERVICE SIOUX FALLS SD
600 AM CDT WED APR 16 2014

NOTE: "FAIR" INDICATES FEW OR NO CLOUDS BELOW 12,000 FEET WITH NO
SIGNIFICANT WEATHER AND/OR OBSTRUCTIONS TO VISIBILITY.


SDZ001>005-009-010-012>017-161200-
NORTHWEST AND NORTH CENTRAL SOUTH DAKOTA

CITY           SKY/WX    TMP DP  RH WIND       PRES   REMARKS
BUFFALO          N/A     28  22  78 NE17      29.66R WCI  16
MOBRIDGE       CLOUDY    30  22  72 NE18G30   29.69R WCI  18
$$

SDZ012>016-024>037-041>051-057-063-072>074-161200-
SOUTHWEST AND SOUTH CENTRAL SOUTH DAKOTA

CITY           SKY/WX    TMP DP  RH WIND       PRES   REMARKS
RAPID CTY ARPT CLOUDY    42  36  79 N21G28    29.66R
PIERRE         FLURRIES  35  26  69 NE21G29   29.64R WCI  24
CUSTER         FLURRIES  35  29  78 NW8       29.66R WCI  29
ELLSWORTH AFB  CLOUDY    42  37  82 NW24G30   29.66R
PHILIP         LGT SNOW  33  29  85 NW5       29.69R FOG     WCI  29
PINE RIDGE     RAIN      40  38  93 NW13      29.68R
SPEARFISH      LGT RAIN  37  36  93 W16G24    29.73R
WINNER         CLOUDY    43  30  60 NW15      29.53R
$$

SDZ004>011-016>023-039-040-161200-
NORTHEAST SOUTH DAKOTA

CITY           SKY/WX    TMP DP  RH WIND       PRES   REMARKS
ABERDEEN       CLOUDY    31  19  61 E24G33    29.76R WCI  17
WATERTOWN      CLOUDY    30  20  66 E21G29    29.70F WCI  17
SISSETON         N/A     29  22  75 SE18G25   29.85S WCI  16
$$

SDZ017-020-022-023-036>040-048>070-161200-
SOUTHEAST SOUTH DAKOTA

CITY           SKY/WX    TMP DP  RH WIND       PRES   REMARKS
SIOUX FALLS    CLOUDY    43  28  55 SE12      29.61F
HURON          CLOUDY    37  26  64 E18G25    29.61R
MITCHELL       CLOUDY    44  29  55 E8        29.54S
YANKTON        CLOUDY    48  23  37 S20G26    29.59S
$$

ABBREVIATIONS USED IN REMARKS
   TC - TEMPERATURE IN CELSIUS
  WCI - WIND CHILL INDEX
   HX - HEAT INDEX
  VSB - VISIBILITY




USA.gov is the U.S. government's official web portal to all federal, state and local government web resources and services.